,,,PA_Meas_PMT16A,,PR_Meas_QMR101_102,,RH_Meas_QMH101,,SR_Meas_QMS101,,TA_Meas_QMH101,,GenWind,,GenWind,
date,time,status,PA,status,PR,status,RH,status,SR,status,TA,status,DirAvg,status,SpdAvg,
2010-01-31, 00:00:04,VALID,1011.36,VALID,0,VALID,70.4543,VALID,0.105969,VALID,23.9845,VALID,161,VALID,0.761328,
2010-01-31, 00:01:04,VALID,1011.37,VALID,0,VALID,70.4467,VALID,0,VALID,23.965,VALID,162,VALID,0.767969,
2010-01-31, 00:02:04,VALID,1011.36,VALID,0,VALID,70.4696,VALID,0,VALID,23.9863,VALID,163,VALID,0.649609,
2010-01-31, 00:03:04,VALID,1011.35,VALID,0,VALID,70.462,VALID,0,VALID,23.965,VALID,150,VALID,0.907812,
2010-01-31, 00:04:04,VALID,1011.36,VALID,0,VALID,70.462,VALID,0.105969,VALID,23.9455,VALID,150,VALID,0.403125,
2010-01-31, 00:05:04,VALID,1011.38,VALID,0,VALID,70.4696,VALID,0.105969,VALID,23.9455,VALID,139,VALID,0.412109,
2010-01-31, 00:06:04,VALID,1011.35,VALID,0,VALID,70.5077,VALID,0,VALID,23.9455,VALID,147,VALID,0.228906,
2010-01-31, 00:07:04,VALID,1011.39,VALID,0,VALID,70.5306,VALID,0.105969,VALID,23.965,VALID,148,VALID,0.294922,
2010-01-31, 00:08:04,VALID,1011.39,VALID,0,VALID,70.5535,VALID,0,VALID,23.926,VALID,168,VALID,0.628906,
2010-01-31, 00:09:04,VALID,1011.39,VALID,0,VALID,70.5763,VALID,0,VALID,23.926,VALID,157,VALID,0.377734,
2010-01-31, 00:10:04,VALID,1011.41,VALID,0,VALID,70.5763,VALID,0,VALID,23.9455,VALID,154,VALID,0.00351562,
2010-01-31, 00:11:04,VALID,1011.42,VALID,0,VALID,70.6068,VALID,0.105969,VALID,23.965,VALID,154,VALID,0,
2010-01-31, 00:12:04,VALID,1011.42,VALID,0,VALID,70.645,VALID,0.105969,VALID,23.965,VALID,163,VALID,0,
2010-01-31, 00:13:04,VALID,1011.44,VALID,0,VALID,70.6526,VALID,0.105969,VALID,23.9455,VALID,177,VALID,0,
2010-01-31, 00:14:04,VALID,1011.42,VALID,0,VALID,70.6755,VALID,0.105969,VALID,23.965,VALID,177,VALID,0,
2010-01-31, 00:15:04,VALID,1011.41,VALID,0,VALID,70.6679,VALID,0.105969,VALID,23.9455,VALID,174,VALID,0,
2010-01-31, 00:16:04,VALID,1011.41,VALID,0,VALID,70.6755,VALID,0.105969,VALID,23.9455,VALID,174,VALID,0,
2010-01-31, 00:17:04,VALID,1011.42,VALID,0,VALID,70.6831,VALID,0.105969,VALID,23.9455,VALID,174,VALID,0,
2010-01-31, 00:18:04,VALID,1011.39,VALID,0,VALID,70.6755,VALID,0.105969,VALID,23.9455,VALID,174,VALID,0,
2010-01-31, 00:19:04,VALID,1011.4,VALID,0,VALID,70.706,VALID,0.105969,VALID,23.9455,VALID,175,VALID,0,
2010-01-31, 00:20:04,VALID,1011.37,VALID,0,VALID,70.706,VALID,0.105969,VALID,23.9455,VALID,168,VALID,0,
2010-01-31, 00:21:04,VALID,1011.35,VALID,0,VALID,70.6984,VALID,0.105969,VALID,23.9455,VALID,168,VALID,0,
2010-01-31, 00:22:04,VALID,1011.34,VALID,0,VALID,70.6907,VALID,0.105969,VALID,23.965,VALID,168,VALID,0,
2010-01-31, 00:23:04,VALID,1011.35,VALID,0,VALID,70.706,VALID,0.105969,VALID,23.9455,VALID,139,VALID,0.360156,
2010-01-31, 00:24:04,VALID,1011.34,VALID,0,VALID,70.7136,VALID,0,VALID,23.965,VALID,136,VALID,0.374219,
2010-01-31, 00:25:04,VALID,1011.32,VALID,0,VALID,70.7289,VALID,0.105969,VALID,23.9455,VALID,136,VALID,0.750391,
2010-01-31, 00:26:04,VALID,1011.31,VALID,0,VALID,70.7289,VALID,0.105969,VALID,23.965,VALID,137,VALID,0.601563,
2010-01-31, 00:27:04,VALID,1011.32,VALID,0,VALID,70.7212,VALID,0.105969,VALID,23.965,VALID,148,VALID,0.694922,
2010-01-31, 00:28:04,VALID,1011.32,VALID,0,VALID,70.7136,VALID,0.105969,VALID,23.965,VALID,148,VALID,0.292188,
2010-01-31, 00:29:04,VALID,1011.3,VALID,0,VALID,70.7365,VALID,0.105969,VALID,23.9455,VALID,148,VALID,0.350781,
2010-01-31, 00:30:04,VALID,1011.34,VALID,0,VALID,70.7289,VALID,0.105969,VALID,23.9455,VALID,154,VALID,0.362109,
2010-01-31, 00:31:04,VALID,1011.33,VALID,0,VALID,70.7136,VALID,0.105969,VALID,23.9455,VALID,159,VALID,0.505469,
2010-01-31, 00:32:04,VALID,1011.35,VALID,0,VALID,70.7365,VALID,0.105969,VALID,23.9668,VALID,162,VALID,0.519141,
2010-01-31, 00:33:04,VALID,1011.36,VALID,0,VALID,70.7289,VALID,0.105969,VALID,23.965,VALID,162,VALID,0.248437,
2010-01-31, 00:34:04,VALID,1011.36,VALID,0,VALID,70.7517,VALID,0.105969,VALID,23.9863,VALID,162,VALID,0.340625,
2010-01-31, 00:35:04,VALID,1011.35,VALID,0,VALID,70.7746,VALID,0.105969,VALID,23.965,VALID,162,VALID,0.408203,
2010-01-31, 00:36:04,VALID,1011.34,VALID,0,VALID,70.767,VALID,0,VALID,23.965,VALID,172,VALID,0.844922,
2010-01-31, 00:37:04,VALID,1011.34,VALID,0,VALID,70.7899,VALID,0.105969,VALID,23.965,VALID,168,VALID,0.421484,
2010-01-31, 00:38:04,VALID,1011.38,VALID,0,VALID,70.7822,VALID,0.105969,VALID,23.965,VALID,166,VALID,0.280078,
2010-01-31, 00:39:04,VALID,1011.37,VALID,0,VALID,70.7822,VALID,0.105969,VALID,23.965,VALID,166,VALID,0,
2010-01-31, 00:40:04,VALID,1011.35,VALID,0,VALID,70.7822,VALID,0.105969,VALID,23.965,VALID,166,VALID,0,
2010-01-31, 00:41:04,VALID,1011.37,VALID,0,VALID,70.8051,VALID,0.105969,VALID,23.965,VALID,167,VALID,0,
2010-01-31, 00:42:04,VALID,1011.37,VALID,0,VALID,70.7822,VALID,0.105969,VALID,23.9845,VALID,184,VALID,0.671094,
2010-01-31, 00:43:04,VALID,1011.39,VALID,0,VALID,70.7899,VALID,0,VALID,23.9863,VALID,184,VALID,0.626172,
2010-01-31, 00:44:04,VALID,1011.38,VALID,0,VALID,70.8051,VALID,0,VALID,24.0058,VALID,174,VALID,0.748828,
2010-01-31, 00:45:04,VALID,1011.4,VALID,0,VALID,70.7975,VALID,0,VALID,23.9845,VALID,188,VALID,0.257422,
2010-01-31, 00:46:04,VALID,1011.37,VALID,0,VALID,70.7899,VALID,0,VALID,24.0253,VALID,188,VALID,0.00195313,
2010-01-31, 00:47:04,VALID,1011.39,VALID,0,VALID,70.8051,VALID,0,VALID,24.0466,VALID,160,VALID,0.253516,
2010-01-31, 00:48:04,VALID,1011.41,VALID,0,VALID,70.828,VALID,0,VALID,24.0253,VALID,161,VALID,0.267969,
2010-01-31, 00:49:04,VALID,1011.41,VALID,0,VALID,70.8204,VALID,0,VALID,24.0058,VALID,153,VALID,0.769922,
2010-01-31, 00:50:04,VALID,1011.41,VALID,0,VALID,70.8356,VALID,0,VALID,24.0253,VALID,139,VALID,0.483203,
2010-01-31, 00:51:04,VALID,1011.43,VALID,0,VALID,70.8204,VALID,0,VALID,24.0253,VALID,177,VALID,0.838281,
2010-01-31, 00:52:04,VALID,1011.43,VALID,0,VALID,70.8509,VALID,0,VALID,24.0253,VALID,173,VALID,0.595312,
2010-01-31, 00:53:04,VALID,1011.42,VALID,0,VALID,70.8204,VALID,0,VALID,24.0448,VALID,138,VALID,0.331641,
2010-01-31, 00:54:04,VALID,1011.42,VALID,0,VALID,70.8356,VALID,0,VALID,24.0253,VALID,138,VALID,0.313281,
2010-01-31, 00:55:04,VALID,1011.44,VALID,0,VALID,70.8356,VALID,0,VALID,24.0253,VALID,138,VALID,0.491016,
2010-01-31, 00:56:04,VALID,1011.44,VALID,0,VALID,70.8432,VALID,0,VALID,24.0466,VALID,124,VALID,0.742969,
2010-01-31, 00:57:04,VALID,1011.43,VALID,0,VALID,70.8509,VALID,0,VALID,24.0466,VALID,121,VALID,0.637109,
2010-01-31, 00:58:04,VALID,1011.41,VALID,0,VALID,70.8432,VALID,0.105969,VALID,24.0235,VALID,108,VALID,1.02305,
2010-01-31, 00:59:04,VALID,1011.43,VALID,0,VALID,70.8432,VALID,0.105969,VALID,24.0429,VALID,118,VALID,0.498437,
2010-01-31, 01:00:04,VALID,1011.39,VALID,0,VALID,70.8585,VALID,0,VALID,24.0448,VALID,117,VALID,0.899219,
2010-01-31, 01:01:04,VALID,1011.41,VALID,0,VALID,70.8356,VALID,0,VALID,24.0235,VALID,106,VALID,0.4625,
2010-01-31, 01:02:04,VALID,1011.4,VALID,0,VALID,70.8585,VALID,0,VALID,24.0235,VALID,119,VALID,0.676172,
2010-01-31, 01:03:04,VALID,1011.41,VALID,0,VALID,70.8432,VALID,0.105969,VALID,24.0429,VALID,119,VALID,0.496094,
2010-01-31, 01:04:04,VALID,1011.39,VALID,0,VALID,70.8432,VALID,0,VALID,24.0429,VALID,82,VALID,0.753516,
2010-01-31, 01:05:04,VALID,1011.4,VALID,0,VALID,70.8204,VALID,0,VALID,24.0429,VALID,82,VALID,0.601563,
2010-01-31, 01:06:04,VALID,1011.38,VALID,0,VALID,70.8432,VALID,0,VALID,24.0624,VALID,73,VALID,0.615234,
2010-01-31, 01:07:04,VALID,1011.38,VALID,0,VALID,70.8585,VALID,0.105969,VALID,24.0429,VALID,53,VALID,0.717969,
2010-01-31, 01:08:04,VALID,1011.35,VALID,0,VALID,70.8432,VALID,0.105969,VALID,24.0235,VALID,71,VALID,0.967188,
2010-01-31, 01:09:04,VALID,1011.38,VALID,0,VALID,70.8356,VALID,0.105969,VALID,24.0253,VALID,67,VALID,0.458203,
2010-01-31, 01:10:04,VALID,1011.36,VALID,0,VALID,70.8509,VALID,0.105969,VALID,24.004,VALID,67,VALID,0.421875,
2010-01-31, 01:11:04,VALID,1011.35,VALID,0,VALID,70.8509,VALID,0.105969,VALID,23.9845,VALID,79,VALID,0.746875,
2010-01-31, 01:12:04,VALID,1011.36,VALID,0,VALID,70.8432,VALID,0.105969,VALID,23.9845,VALID,69,VALID,0.598828,
2010-01-31, 01:13:04,VALID,1011.38,VALID,0,VALID,70.8737,VALID,0,VALID,24.0058,VALID,69,VALID,0.464844,
2010-01-31, 01:14:04,VALID,1011.38,VALID,0,VALID,70.8585,VALID,0.105969,VALID,23.965,VALID,75,VALID,0.663281,
2010-01-31, 01:15:04,VALID,1011.39,VALID,0,VALID,70.8737,VALID,0,VALID,23.965,VALID,73,VALID,0.354297,
2010-01-31, 01:16:04,VALID,1011.41,VALID,0,VALID,70.8737,VALID,0,VALID,23.965,VALID,91,VALID,0.617578,
2010-01-31, 01:17:04,VALID,1011.37,VALID,0,VALID,70.8737,VALID,0,VALID,23.9455,VALID,91,VALID,0.964453,
2010-01-31, 01:18:04,VALID,1011.4,VALID,0,VALID,70.889,VALID,0,VALID,23.9473,VALID,90,VALID,0.613672,
2010-01-31, 01:19:04,VALID,1011.4,VALID,0,VALID,70.9043,VALID,0.105969,VALID,23.926,VALID,72,VALID,0.989453,
2010-01-31, 01:20:04,VALID,1011.38,VALID,0,VALID,70.8966,VALID,0,VALID,23.9278,VALID,97,VALID,0.890625,
2010-01-31, 01:21:04,VALID,1011.41,VALID,0,VALID,70.8966,VALID,0,VALID,23.9278,VALID,71,VALID,0.7,
2010-01-31, 01:22:04,VALID,1011.41,VALID,0,VALID,70.9119,VALID,0,VALID,23.9084,VALID,77,VALID,0.816406,
2010-01-31, 01:23:04,VALID,1011.36,VALID,0,VALID,70.9348,VALID,0,VALID,23.8871,VALID,75,VALID,0.858594,
2010-01-31, 01:24:04,VALID,1011.38,VALID,0,VALID,70.9195,VALID,0.105969,VALID,23.8871,VALID,83,VALID,0.8125,
2010-01-31, 01:25:04,VALID,1011.37,VALID,0,VALID,70.9348,VALID,0,VALID,23.8676,VALID,52,VALID,0.696094,
2010-01-31, 01:26:04,VALID,1011.36,VALID,0,VALID,70.95,VALID,0.105969,VALID,23.8676,VALID,51,VALID,0.61875,
2010-01-31, 01:27:04,VALID,1011.37,VALID,0,VALID,70.9348,VALID,0,VALID,23.8481,VALID,73,VALID,0.506641,
2010-01-31, 01:28:04,VALID,1011.36,VALID,0,VALID,70.9576,VALID,0.105969,VALID,23.8481,VALID,77,VALID,0.274609,
2010-01-31, 01:29:04,VALID,1011.37,VALID,0,VALID,70.95,VALID,0.105969,VALID,23.8286,VALID,67,VALID,0,
2010-01-31, 01:30:04,VALID,1011.33,VALID,0,VALID,70.9424,VALID,0.105969,VALID,23.8481,VALID,67,VALID,0,
2010-01-31, 01:31:04,VALID,1011.33,VALID,0,VALID,70.9653,VALID,0.105969,VALID,23.8286,VALID,67,VALID,0,
2010-01-31, 01:32:04,VALID,1011.32,VALID,0,VALID,70.95,VALID,0.105969,VALID,23.8499,VALID,67,VALID,0,
2010-01-31, 01:33:04,VALID,1011.28,VALID,0,VALID,70.9576,VALID,0.105969,VALID,23.8091,VALID,67,VALID,0,
2010-01-31, 01:34:04,VALID,1011.3,VALID,0,VALID,70.9653,VALID,0,VALID,23.8304,VALID,67,VALID,0,
2010-01-31, 01:35:04,VALID,1011.27,VALID,0,VALID,70.9576,VALID,0.105969,VALID,23.8091,VALID,54,VALID,0,
2010-01-31, 01:36:04,VALID,1011.28,VALID,0,VALID,70.9653,VALID,0,VALID,23.8091,VALID,54,VALID,0,
2010-01-31, 01:37:04,VALID,1011.28,VALID,0,VALID,70.9653,VALID,0.105969,VALID,23.8304,VALID,54,VALID,0,
2010-01-31, 01:38:04,VALID,1011.27,VALID,0,VALID,70.9805,VALID,0,VALID,23.7896,VALID,54,VALID,0,
2010-01-31, 01:39:04,VALID,1011.26,VALID,0,VALID,70.9653,VALID,0.105969,VALID,23.8109,VALID,54,VALID,0,
2010-01-31, 01:40:04,VALID,1011.26,VALID,0,VALID,70.9881,VALID,0.105969,VALID,23.7896,VALID,54,VALID,0,
2010-01-31, 01:41:04,VALID,1011.22,VALID,0,VALID,70.9729,VALID,0,VALID,23.7896,VALID,54,VALID,0,
2010-01-31, 01:42:04,VALID,1011.24,VALID,0,VALID,70.9653,VALID,0,VALID,23.7896,VALID,54,VALID,0,
2010-01-31, 01:43:04,VALID,1011.22,VALID,0,VALID,70.9729,VALID,0,VALID,23.8091,VALID,90,VALID,0,
2010-01-31, 01:44:04,VALID,1011.26,VALID,0,VALID,70.9805,VALID,0.105969,VALID,23.8091,VALID,96,VALID,0,
2010-01-31, 01:45:04,VALID,1011.27,VALID,0,VALID,70.9881,VALID,0,VALID,23.8109,VALID,96,VALID,0,
2010-01-31, 01:46:04,VALID,1011.27,VALID,0,VALID,70.9729,VALID,0,VALID,23.8109,VALID,96,VALID,0,
2010-01-31, 01:47:04,VALID,1011.25,VALID,0,VALID,70.9805,VALID,0,VALID,23.8109,VALID,98,VALID,0,
2010-01-31, 01:48:04,VALID,1011.23,VALID,0,VALID,70.9805,VALID,0.105969,VALID,23.8091,VALID,126,VALID,0,
2010-01-31, 01:49:04,VALID,1011.25,VALID,0,VALID,70.9881,VALID,0.105969,VALID,23.8091,VALID,135,VALID,0,
2010-01-31, 01:50:04,VALID,1011.27,VALID,0,VALID,70.9958,VALID,0.105969,VALID,23.8091,VALID,169,VALID,0,
2010-01-31, 01:51:04,VALID,1011.28,VALID,0,VALID,71.011,VALID,0.105969,VALID,23.7896,VALID,169,VALID,0,
2010-01-31, 01:52:04,VALID,1011.28,VALID,0,VALID,71.011,VALID,0.105969,VALID,23.8109,VALID,161,VALID,0.753906,
2010-01-31, 01:53:04,VALID,1011.27,VALID,0,VALID,71.011,VALID,0,VALID,23.7914,VALID,172,VALID,0.724219,
2010-01-31, 01:54:04,VALID,1011.26,VALID,0,VALID,71.011,VALID,0.105969,VALID,23.7507,VALID,180,VALID,0.973437,
2010-01-31, 01:55:04,VALID,1011.3,VALID,0,VALID,71.011,VALID,0,VALID,23.772,VALID,180,VALID,0.973437,
2010-01-31, 01:56:04,VALID,1011.31,VALID,0,VALID,71.011,VALID,0.105969,VALID,23.7507,VALID,182,VALID,0.683203,
2010-01-31, 01:57:04,VALID,1011.32,VALID,0,VALID,71.011,VALID,0,VALID,23.772,VALID,192,VALID,0.645312,
2010-01-31, 01:58:04,VALID,1011.32,VALID,0,VALID,70.9805,VALID,0.105969,VALID,23.7896,VALID,202,VALID,0.372266,
2010-01-31, 01:59:04,VALID,1011.36,VALID,0,VALID,71.0034,VALID,0.105969,VALID,23.7896,VALID,195,VALID,0.646875,
2010-01-31, 02:00:04,VALID,1011.36,VALID,0,VALID,71.0034,VALID,0.105969,VALID,23.8109,VALID,195,VALID,0.532031,
2010-01-31, 02:01:04,VALID,1011.38,VALID,0,VALID,71.0034,VALID,0.105969,VALID,23.7701,VALID,200,VALID,0.649219,
2010-01-31, 02:02:04,VALID,1011.39,VALID,0,VALID,70.9881,VALID,0.105969,VALID,23.7701,VALID,197,VALID,0.698828,
2010-01-31, 02:03:04,VALID,1011.41,VALID,0,VALID,70.9576,VALID,0.105969,VALID,23.7683,VALID,208,VALID,0.549609,
2010-01-31, 02:04:04,VALID,1011.43,VALID,0,VALID,70.9805,VALID,0.105969,VALID,23.7896,VALID,193,VALID,0.589844,
2010-01-31, 02:05:04,VALID,1011.45,VALID,0,VALID,70.9653,VALID,0.105969,VALID,23.8091,VALID,195,VALID,0.389844,
2010-01-31, 02:06:04,VALID,1011.46,VALID,0,VALID,70.95,VALID,0,VALID,23.8286,VALID,200,VALID,0.593359,
2010-01-31, 02:07:04,VALID,1011.46,VALID,0,VALID,70.9424,VALID,0.105969,VALID,23.8286,VALID,201,VALID,1.16602,
2010-01-31, 02:08:04,VALID,1011.47,VALID,0,VALID,70.9348,VALID,0.105969,VALID,23.8676,VALID,217,VALID,0.725391,
2010-01-31, 02:09:04,VALID,1011.45,VALID,0,VALID,70.9271,VALID,0,VALID,23.8676,VALID,212,VALID,0.760156,
2010-01-31, 02:10:04,VALID,1011.41,VALID,0,VALID,70.9348,VALID,0.105969,VALID,23.8871,VALID,199,VALID,0.883203,
2010-01-31, 02:11:04,VALID,1011.41,VALID,0,VALID,70.9424,VALID,0.105969,VALID,23.8871,VALID,198,VALID,0.284766,
2010-01-31, 02:12:04,VALID,1011.38,VALID,0,VALID,70.9271,VALID,0.105969,VALID,23.926,VALID,199,VALID,0.959375,
2010-01-31, 02:13:04,VALID,1011.4,VALID,0,VALID,70.9271,VALID,0.105969,VALID,23.926,VALID,204,VALID,1.01719,
2010-01-31, 02:14:04,VALID,1011.39,VALID,0,VALID,70.9195,VALID,0.105969,VALID,23.965,VALID,189,VALID,0.829297,
2010-01-31, 02:15:04,VALID,1011.37,VALID,0,VALID,70.9195,VALID,0.105969,VALID,23.965,VALID,184,VALID,1.10117,
2010-01-31, 02:16:04,VALID,1011.38,VALID,0,VALID,70.9424,VALID,0.105969,VALID,23.965,VALID,195,VALID,0.964063,
2010-01-31, 02:17:04,VALID,1011.38,VALID,0,VALID,70.9576,VALID,0.105969,VALID,23.965,VALID,212,VALID,1.11367,
2010-01-31, 02:18:04,VALID,1011.38,VALID,0,VALID,70.9729,VALID,0.105969,VALID,23.965,VALID,203,VALID,0.630078,
2010-01-31, 02:19:04,VALID,1011.38,VALID,0,VALID,70.9805,VALID,0.105969,VALID,23.9845,VALID,204,VALID,0.975391,
2010-01-31, 02:20:04,VALID,1011.41,VALID,0,VALID,70.9729,VALID,0.105969,VALID,23.965,VALID,195,VALID,0.880469,
2010-01-31, 02:21:04,VALID,1011.36,VALID,0,VALID,70.9958,VALID,0.105969,VALID,23.965,VALID,199,VALID,1.54414,
2010-01-31, 02:22:04,VALID,1011.34,VALID,0,VALID,71.0263,VALID,0.105969,VALID,23.965,VALID,194,VALID,0.839063,
2010-01-31, 02:23:04,VALID,1011.34,VALID,0,VALID,71.0034,VALID,0.105969,VALID,23.9845,VALID,182,VALID,0.605859,
2010-01-31, 02:24:04,VALID,1011.32,VALID,0,VALID,70.9958,VALID,0.105969,VALID,23.965,VALID,189,VALID,1.71758,
2010-01-31, 02:25:04,VALID,1011.31,VALID,0,VALID,71.0491,VALID,0.105969,VALID,23.965,VALID,191,VALID,1.50039,
2010-01-31, 02:26:04,VALID,1011.3,VALID,0,VALID,71.0263,VALID,0.105969,VALID,23.965,VALID,193,VALID,0.969922,
2010-01-31, 02:27:04,VALID,1011.27,VALID,0,VALID,71.0339,VALID,0.105969,VALID,23.965,VALID,198,VALID,1.07148,
2010-01-31, 02:28:04,VALID,1011.25,VALID,0,VALID,71.0415,VALID,0,VALID,23.9473,VALID,202,VALID,1.25312,
2010-01-31, 02:29:04,VALID,1011.25,VALID,0,VALID,71.0568,VALID,0,VALID,23.9473,VALID,173,VALID,1.18594,
2010-01-31, 02:30:04,VALID,1011.24,VALID,0,VALID,71.0644,VALID,0,VALID,23.9278,VALID,187,VALID,1.5043,
2010-01-31, 02:31:04,VALID,1011.2,VALID,0,VALID,71.0873,VALID,0,VALID,23.926,VALID,172,VALID,0.994141,
2010-01-31, 02:32:04,VALID,1011.22,VALID,0,VALID,71.072,VALID,0,VALID,23.9473,VALID,187,VALID,0.983203,
2010-01-31, 02:33:04,VALID,1011.19,VALID,0,VALID,71.0644,VALID,0,VALID,23.9473,VALID,167,VALID,0.545313,
2010-01-31, 02:34:04,VALID,1011.19,VALID,0,VALID,71.0873,VALID,0,VALID,23.9473,VALID,175,VALID,0.259375,
2010-01-31, 02:35:04,VALID,1011.17,VALID,0,VALID,71.1102,VALID,0,VALID,23.9084,VALID,165,VALID,0.367578,
2010-01-31, 02:36:04,VALID,1011.19,VALID,0,VALID,71.1025,VALID,0,VALID,23.9084,VALID,182,VALID,0.826172,
2010-01-31, 02:37:04,VALID,1011.18,VALID,0,VALID,71.0949,VALID,0,VALID,23.9278,VALID,180,VALID,0.514063,
2010-01-31, 02:38:04,VALID,1011.2,VALID,0,VALID,71.1178,VALID,0,VALID,23.9084,VALID,156,VALID,0.605859,
2010-01-31, 02:39:04,VALID,1011.18,VALID,0,VALID,71.1254,VALID,0,VALID,23.9084,VALID,160,VALID,0.473828,
2010-01-31, 02:40:04,VALID,1011.15,VALID,0,VALID,71.1178,VALID,0,VALID,23.9084,VALID,154,VALID,0.669922,
2010-01-31, 02:41:04,VALID,1011.16,VALID,0,VALID,71.1102,VALID,0,VALID,23.9084,VALID,167,VALID,0.715625,
2010-01-31, 02:42:04,VALID,1011.17,VALID,0,VALID,71.1407,VALID,0,VALID,23.9084,VALID,168,VALID,0.717188,
2010-01-31, 02:43:04,VALID,1011.15,VALID,0,VALID,71.1254,VALID,0,VALID,23.9084,VALID,163,VALID,0.639063,
2010-01-31, 02:44:04,VALID,1011.17,VALID,0,VALID,71.1483,VALID,0,VALID,23.9102,VALID,164,VALID,0.403906,
2010-01-31, 02:45:04,VALID,1011.16,VALID,0,VALID,71.133,VALID,0,VALID,23.9102,VALID,161,VALID,0.210938,
2010-01-31, 02:46:04,VALID,1011.19,VALID,0,VALID,71.1483,VALID,0,VALID,23.9084,VALID,163,VALID,0.6,
2010-01-31, 02:47:04,VALID,1011.15,VALID,0,VALID,71.1483,VALID,0,VALID,23.8889,VALID,153,VALID,0.670703,
2010-01-31, 02:48:04,VALID,1011.13,VALID,0,VALID,71.1407,VALID,0,VALID,23.9084,VALID,156,VALID,0.30625,
2010-01-31, 02:49:04,VALID,1011.13,VALID,0,VALID,71.1483,VALID,0,VALID,23.8889,VALID,143,VALID,0.432031,
2010-01-31, 02:50:04,VALID,1011.15,VALID,0,VALID,71.1483,VALID,0,VALID,23.9084,VALID,143,VALID,0,
2010-01-31, 02:51:04,VALID,1011.14,VALID,0,VALID,71.1407,VALID,0,VALID,23.8889,VALID,143,VALID,0.252344,
2010-01-31, 02:52:04,VALID,1011.14,VALID,0,VALID,71.1559,VALID,0,VALID,23.8889,VALID,143,VALID,0,
2010-01-31, 02:53:04,VALID,1011.13,VALID,0,VALID,71.133,VALID,0,VALID,23.9084,VALID,143,VALID,0,
2010-01-31, 02:54:04,VALID,1011.12,VALID,0,VALID,71.1407,VALID,0,VALID,23.9297,VALID,143,VALID,0,
2010-01-31, 02:55:04,VALID,1011.12,VALID,0,VALID,71.1559,VALID,0,VALID,23.9084,VALID,150,VALID,0.389062,
2010-01-31, 02:56:04,VALID,1011.14,VALID,0,VALID,71.1559,VALID,0,VALID,23.8889,VALID,153,VALID,0.144922,
2010-01-31, 02:57:04,VALID,1011.12,VALID,0,VALID,71.1635,VALID,0,VALID,23.8889,VALID,153,VALID,0,
2010-01-31, 02:58:04,VALID,1011.13,VALID,0,VALID,71.1559,VALID,0.105969,VALID,23.9084,VALID,153,VALID,0,
2010-01-31, 02:59:04,VALID,1011.11,VALID,0,VALID,71.1559,VALID,0.105969,VALID,23.9084,VALID,153,VALID,0.258203,
2010-01-31, 03:00:04,VALID,1011.1,VALID,0,VALID,71.1635,VALID,0.105969,VALID,23.8871,VALID,153,VALID,0,
2010-01-31, 03:01:04,VALID,1011.12,VALID,0,VALID,71.1559,VALID,0.105969,VALID,23.8871,VALID,153,VALID,0,
2010-01-31, 03:02:04,VALID,1011.13,VALID,0,VALID,71.1635,VALID,0.105969,VALID,23.8871,VALID,153,VALID,0,
2010-01-31, 03:03:04,VALID,1011.13,VALID,0,VALID,71.1635,VALID,0.105969,VALID,23.9278,VALID,153,VALID,0,
2010-01-31, 03:04:04,VALID,1011.14,VALID,0,VALID,71.1635,VALID,0,VALID,23.8889,VALID,153,VALID,0,
2010-01-31, 03:05:04,VALID,1011.16,VALID,0,VALID,71.1483,VALID,0.105969,VALID,23.9084,VALID,153,VALID,0,
2010-01-31, 03:06:04,VALID,1011.16,VALID,0,VALID,71.1635,VALID,0.105969,VALID,23.9278,VALID,153,VALID,0,
2010-01-31, 03:07:04,VALID,1011.18,VALID,0,VALID,71.1712,VALID,0.105969,VALID,23.8871,VALID,126,VALID,0,
2010-01-31, 03:08:04,VALID,1011.19,VALID,0,VALID,71.194,VALID,0.105969,VALID,23.8889,VALID,126,VALID,0,
2010-01-31, 03:09:04,VALID,1011.2,VALID,0,VALID,71.1864,VALID,0,VALID,23.8286,VALID,126,VALID,0,
2010-01-31, 03:10:04,VALID,1011.22,VALID,0,VALID,71.194,VALID,0.105969,VALID,23.8286,VALID,126,VALID,0,
2010-01-31, 03:11:04,VALID,1011.24,VALID,0,VALID,71.1864,VALID,0.105969,VALID,23.8304,VALID,126,VALID,0,
2010-01-31, 03:12:04,VALID,1011.23,VALID,0,VALID,71.1864,VALID,0.105969,VALID,23.7896,VALID,126,VALID,0,
2010-01-31, 03:13:04,VALID,1011.23,VALID,0,VALID,71.194,VALID,0.105969,VALID,23.7896,VALID,126,VALID,0,
2010-01-31, 03:14:04,VALID,1011.28,VALID,0,VALID,71.1864,VALID,0,VALID,23.8109,VALID,126,VALID,0,
2010-01-31, 03:15:04,VALID,1011.27,VALID,0,VALID,71.2093,VALID,0,VALID,23.8109,VALID,126,VALID,0,
2010-01-31, 03:16:04,VALID,1011.25,VALID,0,VALID,71.194,VALID,0.105969,VALID,23.7896,VALID,126,VALID,0,
2010-01-31, 03:17:04,VALID,1011.23,VALID,0,VALID,71.2017,VALID,0.105969,VALID,23.7896,VALID,126,VALID,0,
2010-01-31, 03:18:04,VALID,1011.28,VALID,0,VALID,71.1864,VALID,0.105969,VALID,23.8109,VALID,126,VALID,0,
2010-01-31, 03:19:04,VALID,1011.29,VALID,0,VALID,71.1788,VALID,0.105969,VALID,23.8091,VALID,126,VALID,0,
2010-01-31, 03:20:04,VALID,1011.28,VALID,0,VALID,71.1712,VALID,0.105969,VALID,23.8091,VALID,126,VALID,0,
2010-01-31, 03:21:04,VALID,1011.27,VALID,0,VALID,71.1712,VALID,0.105969,VALID,23.8091,VALID,126,VALID,0,
2010-01-31, 03:22:04,VALID,1011.3,VALID,0,VALID,71.1788,VALID,0.105969,VALID,23.8091,VALID,126,VALID,0,
2010-01-31, 03:23:04,VALID,1011.28,VALID,0,VALID,71.1635,VALID,0.105969,VALID,23.8304,VALID,126,VALID,0,
2010-01-31, 03:24:04,VALID,1011.28,VALID,0,VALID,71.1483,VALID,0,VALID,23.8286,VALID,126,VALID,0,
2010-01-31, 03:25:04,VALID,1011.31,VALID,0,VALID,71.1407,VALID,0.105969,VALID,23.8499,VALID,126,VALID,0,
2010-01-31, 03:26:04,VALID,1011.3,VALID,0,VALID,71.1483,VALID,0.105969,VALID,23.8286,VALID,126,VALID,0,
2010-01-31, 03:27:04,VALID,1011.29,VALID,0,VALID,71.1407,VALID,0.105969,VALID,23.8286,VALID,126,VALID,0,
2010-01-31, 03:28:04,VALID,1011.33,VALID,0,VALID,71.1559,VALID,0,VALID,23.8304,VALID,126,VALID,0,
2010-01-31, 03:29:04,VALID,1011.29,VALID,0,VALID,71.1559,VALID,0,VALID,23.8109,VALID,126,VALID,0,
2010-01-31, 03:30:04,VALID,1011.31,VALID,0,VALID,71.1635,VALID,0,VALID,23.8322,VALID,126,VALID,0,
2010-01-31, 03:31:04,VALID,1011.32,VALID,0,VALID,71.1483,VALID,0,VALID,23.8322,VALID,78,VALID,0,
2010-01-31, 03:32:04,VALID,1011.32,VALID,0,VALID,71.1712,VALID,0,VALID,23.8322,VALID,70,VALID,0,
2010-01-31, 03:33:04,VALID,1011.32,VALID,0,VALID,71.1635,VALID,0,VALID,23.8127,VALID,70,VALID,0,
2010-01-31, 03:34:04,VALID,1011.33,VALID,0,VALID,71.194,VALID,0,VALID,23.7525,VALID,70,VALID,0,
2010-01-31, 03:35:04,VALID,1011.32,VALID,0,VALID,71.1864,VALID,0,VALID,23.7525,VALID,38,VALID,0.564062,
2010-01-31, 03:36:04,VALID,1011.36,VALID,0,VALID,71.194,VALID,0,VALID,23.733,VALID,25,VALID,0.577344,
2010-01-31, 03:37:04,VALID,1011.35,VALID,0,VALID,71.2017,VALID,0,VALID,23.7543,VALID,40,VALID,0.466797,
2010-01-31, 03:38:04,VALID,1011.37,VALID,0,VALID,71.1864,VALID,0,VALID,23.7135,VALID,39,VALID,0.100391,
2010-01-31, 03:39:04,VALID,1011.38,VALID,0,VALID,71.1864,VALID,0,VALID,23.7135,VALID,39,VALID,0,
2010-01-31, 03:40:04,VALID,1011.37,VALID,0,VALID,71.1788,VALID,0,VALID,23.7135,VALID,39,VALID,0.0351563,
2010-01-31, 03:41:04,VALID,1011.36,VALID,0,VALID,71.2017,VALID,0,VALID,23.694,VALID,40,VALID,0.00195313,
2010-01-31, 03:42:04,VALID,1011.34,VALID,0,VALID,71.2169,VALID,0,VALID,23.6745,VALID,346,VALID,0.258984,